WetterOnline ( http://www.wetteronline.de )

Wetter aktuell Nittenau

Aktuelles Wetter: Regensburg/Oberhub (371m)

6-stündlich | Neueste Meldungen
Ortszeit Temperatur Wetter
Mo, 18.02. 1:00 -2.1° C wolkig
So, 17.02. 19:00 4.5° C leicht bewölkt
So, 17.02. 13:00 7.6° C wolkenlos
So, 17.02. 7:00 -4.4° C wolkenlos
So, 17.02. 1:00 -2.3° C wolkenlos
Sa, 16.02. 19:00 4.5° C wolkenlos
Sa, 16.02. 13:00 7.6° C wolkenlos
Sa, 16.02. 7:00 -4.0° C wolkig
Ortszeit Temperatur Wetter
Mo, 18.02. 2:30 -3.0° C leicht bewölkt
Mo, 18.02. 2:20 -3.0° C leicht bewölkt
Mo, 18.02. 2:10 -2.9° C wolkig
Mo, 18.02. 2:00 -2.7° C wolkig
Mo, 18.02. 1:50 -2.7° C wolkig
Mo, 18.02. 1:40 -2.5° C wolkig
Mo, 18.02. 1:30 -2.2° C wolkig
Mo, 18.02. 1:00 -2.1° C wolkig
Mo, 18.02. 0:30 -1.6° C wolkig
Mo, 18.02. 0:00 -1.5° C wolkig
So, 17.02. 23:30 -1.5° C wolkig
Ortszeit Relative Feuchte Sichtweite
Mo, 18.02. 1:00 93% 19 km
So, 17.02. 19:00 71% 27 km
So, 17.02. 13:00 54% 30 km
So, 17.02. 7:00 94% 9 km
So, 17.02. 1:00 95% 8 km
Sa, 16.02. 19:00 77% 29 km
Sa, 16.02. 13:00 57% 30 km
Sa, 16.02. 7:00 94% 10 km
Ortszeit Relative Feuchte Sichtweite
Mo, 18.02. 2:30 94% 18 km
Mo, 18.02. 2:20 94% -
Mo, 18.02. 2:10 94% -
Mo, 18.02. 2:00 94% 13 km
Mo, 18.02. 1:50 94% -
Mo, 18.02. 1:40 94% -
Mo, 18.02. 1:30 93% 18 km
Mo, 18.02. 1:00 93% 19 km
Mo, 18.02. 0:30 91% 19 km
Mo, 18.02. 0:00 91% 23 km
So, 17.02. 23:30 91% 18 km
Ortszeit Niederschlagsmenge Niederschlagsart
Mo, 18.02. 1:00 0.0 l/m2 in 6 Std. -
So, 17.02. 19:00 0.0 l/m2 in 12 Std. -
So, 17.02. 13:00 0.0 l/m2 in 6 Std. -
So, 17.02. 7:00 0.0 l/m2 in 12 Std. -
So, 17.02. 1:00 0.0 l/m2 in 6 Std. -
Sa, 16.02. 19:00 0.0 l/m2 in 12 Std. -
Sa, 16.02. 13:00 0.0 l/m2 in 6 Std. -
Sa, 16.02. 7:00 0.0 l/m2 in 12 Std. -
Ortszeit Niederschlagsmenge Niederschlagsart
Mo, 18.02. 2:30 0.0 l/m2 in 1 Std. -
Mo, 18.02. 2:20 keine Meldung -
Mo, 18.02. 2:10 keine Meldung -
Mo, 18.02. 2:00 0.0 l/m2 in 1 Std. -
Mo, 18.02. 1:50 keine Meldung -
Mo, 18.02. 1:40 keine Meldung -
Mo, 18.02. 1:30 0.0 l/m2 in 1 Std. -
Mo, 18.02. 1:00 0.0 l/m2 in 1 Std. -
Mo, 18.02. 0:30 0.0 l/m2 in 1 Std. -
Mo, 18.02. 0:00 0.0 l/m2 in 1 Std. -
So, 17.02. 23:30 0.0 l/m2 in 1 Std. -
Ortszeit Stärke Spitze Richtung
km/h Bft. km/h Grad Sektor
Mo, 18.02. 1:00 4 1 7 20° N
So, 17.02. 19:00 4 1 22 160° S
So, 17.02. 13:00 11 2 18 140° SO
So, 17.02. 7:00 4 1 7 360° N
So, 17.02. 1:00 4 1 7 360° N
Sa, 16.02. 19:00 4 1 22 140° SO
Sa, 16.02. 13:00 9 2 24 160° S
Sa, 16.02. 7:00 7 2 14 340° N
Ortszeit Stärke Spitze Richtung
km/h Bft. km/h Grad Sektor
Mo, 18.02. 2:30 4 1 7 40° NO
Mo, 18.02. 2:20 4 1 - 40° NO
Mo, 18.02. 2:10 4 1 - 360° N
Mo, 18.02. 2:00 4 1 4 350° N
Mo, 18.02. 1:50 4 1 - 350° N
Mo, 18.02. 1:40 2 1 - 10° N
Mo, 18.02. 1:30 4 1 4 40° NO
Mo, 18.02. 1:00 4 1 4 20° N
Mo, 18.02. 0:30 0 0 4 - -
Mo, 18.02. 0:00 4 1 4 10° N
So, 17.02. 23:30 4 1 4 340° N
Ortszeit Untergrenze Bedeckung Gattung
total tief tief mittel hoch
Mo, 18.02. 1:00 9000 m 8/8 0/8 - - -
So, 17.02. 19:00 9000 m 6/8 0/8 - - -
So, 17.02. 13:00 - 0/8 0/8 - - -
So, 17.02. 7:00 - 0/8 0/8 - - -
So, 17.02. 1:00 - 0/8 0/8 - - -
Sa, 16.02. 19:00 - 0/8 0/8 - - -
Sa, 16.02. 13:00 - 0/8 0/8 - - -
Sa, 16.02. 7:00 10500 m 8/8 0/8 - - -
Ortszeit Bedeckungsgrad in Achtel und Wolkenuntergrenze
Mo, 18.02. 2:30 1(10500m) 5(10500m)
Mo, 18.02. 2:20 1(10500m) 5(10500m)
Mo, 18.02. 2:10 8(10500m)
Mo, 18.02. 2:00 8(10500m)
Mo, 18.02. 1:50 8(10500m)
Mo, 18.02. 1:40 8(10500m)
Mo, 18.02. 1:30 2(9000m) 8(10500m) 8(10500m)
Mo, 18.02. 1:00 8(9000m) 8(10500m) 8(10500m)
Mo, 18.02. 0:30 8(9000m) 8(10500m) 8(10500m)
Mo, 18.02. 0:00 8(9000m) 8(10500m) 8(10500m)
So, 17.02. 23:30 8(9000m) 8(10500m) 8(10500m)
Ortszeit Luftdruck NN (hPa) Tendenz (hPa in 3 Std.)
Mo, 18.02. 1:00 1027 - 0,2
So, 17.02. 19:00 1026 - 0,4
So, 17.02. 13:00 1028 - 1,2
So, 17.02. 7:00 1031 - 0,1
So, 17.02. 1:00 1031 - 0,4
Sa, 16.02. 19:00 1030 + 0,3
Sa, 16.02. 13:00 1031 - 0,5
Sa, 16.02. 7:00 1033 + 0,1
Ortszeit Luftdruck NN (hPa) Tendenz (hPa in 3 Std.)
Mo, 18.02. 2:30 1027 - 0,1
Mo, 18.02. 2:20 1027 keine Meldung
Mo, 18.02. 2:10 1027 keine Meldung
Mo, 18.02. 2:00 1027 - 0,3
Mo, 18.02. 1:50 1027 keine Meldung
Mo, 18.02. 1:40 1027 keine Meldung
Mo, 18.02. 1:30 1027 - 0,2
Mo, 18.02. 1:00 1027 - 0,2
Mo, 18.02. 0:30 1027 0,0
Mo, 18.02. 0:00 1027 - 0,2
So, 17.02. 23:30 1027 - 0,1
Ortszeit Schneehöhe (cm)
Mo, 18.02. 1:00 0
So, 17.02. 19:00 0
So, 17.02. 13:00 0
So, 17.02. 7:00 0
So, 17.02. 1:00 0
Sa, 16.02. 19:00 0
Sa, 16.02. 13:00 0
Sa, 16.02. 7:00 0
Ortszeit Schneehöhe (cm)
Mo, 18.02. 2:30 0
Mo, 18.02. 2:20 0
Mo, 18.02. 2:10 0
Mo, 18.02. 2:00 0
Mo, 18.02. 1:50 0
Mo, 18.02. 1:40 0
Mo, 18.02. 1:30 0
Mo, 18.02. 1:00 0
Mo, 18.02. 0:30 0
Mo, 18.02. 0:00 0
So, 17.02. 23:30 0
Link zu dieser Seite / Seite empfehlen

Das Wetter in ...